Погода в Кёпрюбаши

Турция     38°44′49″N   28°24′16″E
темп.,
°C
ветер,
м/с
пор.,
м/с
влажн.,
%
обл.,
%
осадки,
мм/ч
давл.,
гПа
погр.,
м
11 мая, вт
вт1100:00+13с12500 0.0 101518
03:00+12ссв11510 0.0 101415
06:00+11св22500 0.0 101413
09:00+17в12330 0.0 1014406
12:00+22с01220 0.0 10121111
15:00+26з12170 0.0 10101660
18:00+25зсз55270 0.0 1009964
21:00+17зсз22505 0.0 101022
12 мая, ср
ср1200:00+14сз12562 0.0 101114
03:00+13зсз11600 0.0 101011
06:00+12з11625 0.0 100910
09:00+17ю01465 0.0 1010375
12:00+23зюз23325 0.0 10081028
15:00+26з66210 0.0 10071552
18:00+25з671999 0.0 10071135
21:00+19з223471 0.0 100812
13 мая, чт
чт1300:00+18з1133100 0.0 100811
03:00+15юз11400 0.0 100811
06:00+14вюв11430 0.0 100811
09:00+21юв23284 0.0 1009566
12:00+25юз45215 0.0 10081802
15:00+27зюз551922 0.0 10082208
18:00+24зюз88275 0.0 10091155
21:00+18сз11480 0.0 101011
14 мая, пт
пт1400:00+16зсз11553 0.0 101011
03:00+14ююз01610 0.0 101111
06:00+13юв11645 0.0 101111
09:00+19ююв23400 0.0 1012650
12:00+24юз35240 0.0 10121536
15:00+26з67260 0.0 10122083
18:00+25з77310 0.0 10121633
21:00+18зсз47550 0.0 1014126
15 мая, сб
сб1500:00+16з22640 0.0 101611
03:00+14зюз11701 0.0 101511
06:00+14в22710 0.0 101511
09:00+19в225167 0.0 1015463
12:00+24ююв1128100 0.0 10131315
15:00+27з2322100 0.0 10111732
18:00+26з66251 0.0 10101579
21:00+20зсз223899 0.0 101011